Location: Fours
(44.3167°N, 6.7000°E)
Time: 05:48:58
(UTC+00:00)

H-2A R/B - Pass Details

Date: 30 November 2020
Orbit: 499 x 540 km, 97.3° (Epoch: 22 January)

Event Time Altitude Azimuth Distance (km) Brightness Sun altitude
Rises 16:37:56 0° 178° (S) 2,651 6.6 -7.6°
Reaches altitude 10° 16:40:04 10° 184° (S) 1,773 5.8 -7.9°
Maximum altitude 16:43:48 50° 261° (W) 684 3.8 -8.6°
Drops below altitude 10° 16:47:37 10° 338° (NNW) 1,806 5.5 -9.2°
Sets 16:49:48 0° 343° (NNW) 2,707 6.3 -9.6°
